{"data":{"norad_id":65373,"intl_designator":"2025-190Y","name":"STARLINK-34891","alt_names":[],"object_type":"PAYLOAD","status":"ACTIVE","operator":null,"country":"US","launch_date":"2025-08-28","launch_site_code":"AFETR","launch_vehicle":null,"mission":null,"orbit_class":"UNKNOWN","rcs_meters":null,"size_class":null,"mass_kg":null,"dimensions":null,"purposes":["comms"],"wikipedia_slug":null,"has_3d_model":false,"image_url":null,"decayed_at":null,"tle_current":{"epoch":"2026-05-25T01:46:31.959264Z","epoch_age_seconds":68740,"freshness":"FRESH","line1":"1 65373U 25190Y   26145.07398101  .00020997  00000+0  63082-3 0  9996","line2":"2 65373  53.1588 173.1133 0001251  80.8449 279.2695 15.34400122 40935","mean_motion":15.34400122,"eccentricity":0.0001251,"inclination_deg":53.1588,"raan_deg":173.1133,"arg_perigee_deg":80.8449,"mean_anomaly_deg":279.2695,"bstar":0.00063082,"rev_number":4093,"period_min":93.847750619509,"perigee_km":461.84708852873,"apogee_km":463.55866666611,"semimajor_km":6840.8398775974,"source":"CELESTRAK","updated_at":"2026-05-25T13:38:20.769979Z"}}}